Temp
-15 -14 -15 -14 -14 -13 -13 -13 -13 -12 -12 -12 -12 -12 -12 -13 -13 -13 -13 -13 -13 -13 -13 -13 -13 -14 -14 -14 -14 -15 -15 -15 -16 -16 -16 -16 -16 -17 -18 -19 -20 -19 -19
-15 -15 -15 -14 -14 -13 -13 -13 -13 -12 -13 -12 -12 -13 -13 -13 -13 -13 -13 -13 -13 -14 -14 -14 -14 -14 -14 -15 -15 -15 -16 -16 -16 -16 -16 -16 -17 -17 -17 -17 -18 -19 -19
-15 -15 -15 -14 -14 -13 -13 -13 -13 -13 -13 -13 -13 -13 -13 -13 -13 -13 -13 -13 -14 -14 -14 -14 -14 -14 -14 -15 -15 -16 -16 -16 -16 -16 -16 -17 -17 -17 -17 -18 -18 -18 -19
-15 -14 -14 -14 -14 -14 -13 -13 -13 -13 -13 -13 -13 -13 -13 -13 -13 -14 -14 -13 -14 -14 -14 -14 -14 -15 -15 -15 -16 -16 -16 -16 -16 -16 -16 -17 -17 -17 -17 -18 -18 -18 -18
-15 -14 -14 -14 -14 -14 -14 -13 -13 -13 -13 -13 -13 -13 -13 -13 -14 -14 -14 -14 -14 -14 -14 -15 -15 -15 -15 -16 -16 -16 -16 -17 -17 -17 -17 -17 -17 -17 -18 -18 -18 -18 -19
-15 -14 -14 -14 -14 -14 -14 -14 -14 -14 -14 -14 -14 -13 -14 -14 -14 -14 -14 -14 -14 -15 -15 -15 -15 -15 -16 -16 -16 -17 -17 -17 -17 -17 -17 -18 -18 -18 -18 -19 -19 -19 -20
-15 -15 -15 -15 -15 -14 -14 -14 -14 -14 -14 -14 -14 -14 -14 -14 -14 -14 -14 -15 -15 -15 -15 -15 -15 -16 -16 -17 -17 -17 -17 -17 -17 -18 -18 -18 -18 -19 -19 -19 -20 -20 -20
-15 -15 -15 -15 -15 -15 -15 -14 -14 -14 -14 -14 -15 -15 -15 -15 -15 -15 -15 -15 -15 -16 -16 -16 -16 -17 -17 -17 -17 -17 -17 -18 -18 -18 -18 -18 -19 -19 -19 -20 -20 -21 -21
-15 -15 -15 -15 -15 -15 -15 -15 -15 -15 -15 -15 -15 -15 -15 -15 -15 -15 -16 -16 -16 -16 -16 -16 -17 -17 -17 -17 -17 -18 -18 -18 -18 -18 -18 -19 -19 -20 -20 -20 -21 -21 -22
-16 -15 -15 -15 -15 -15 -15 -15 -15 -15 -15 -15 -15 -15 -16 -16 -16 -16 -16 -16 -16 -16 -17 -17 -17 -17 -17 -18 -18 -18 -18 -18 -18 -18 -19 -19 -20 -20 -21 -21 -22 -22 -22
-16 -16 -16 -16 -16 -16 -15 -15 -15 -15 -15 -15 -16 -16 -16 -16 -16 -16 -17 -17 -17 -17 -17 -17 -17 -18 -18 -18 -18 -18 -18 -18 -19 -19 -19 -20 -20 -21 -22 -22 -22 -23 -23
-16 -16 -16 -16 -16 -16 -16 -16 -16 -15 -16 -16 -16 -16 -16 -17 -17 -17 -17 -17 -17 -17 -17 -17 -18 -18 -18 -18 -18 -19 -19 -19 -19 -19 -20 -21 -21 -21 -22 -22 -23 -23 -23
-16 -16 -16 -16 -16 -16 -16 -16 -16 -16 -16 -16 -16 -17 -17 -17 -17 -17 -17 -17 -17 -17 -17 -17 -18 -18 -18 -18 -19 -19 -19 -19 -19 -20 -20 -21 -21 -22 -22 -23 -23 -23 -24
-17 -17 -17 -17 -16 -17 -16 -16 -16 -16 -17 -17 -17 -17 -17 -18 -18 -17 -17 -17 -17 -17 -18 -18 -18 -18 -18 -19 -19 -19 -19 -19 -20 -20 -21 -21 -22 -23 -23 -23 -23 -23 -24
-17 -17 -17 -17 -17 -17 -17 -17 -17 -17 -17 -17 -18 -18 -18 -18 -18 -18 -18 -18 -18 -18 -18 -18 -18 -18 -18 -19 -19 -19 -19 -20 -20 -21 -21 -22 -22 -23 -23 -23 -23 -23 -23
-17 -17 -17 -17 -17 -17 -17 -17 -17 -18 -18 -18 -18 -18 -18 -18 -18 -18 -18 -18 -18 -18 -18 -18 -18 -19 -19 -19 -20 -20 -20 -20 -21 -21 -21 -22 -22 -23 -23 -23 -23 -23 -24
-17 -17 -17 -17 -17 -17 -18 -18 -18 -18 -18 -18 -19 -19 -19 -19 -18 -18 -18 -18 -18 -18 -18 -18 -19 -19 -19 -20 -20 -20 -20 -20 -21 -22 -22 -22 -23 -23 -23 -23 -23 -23 -24
-18 -18 -18 -18 -18 -18 -18 -18 -18 -19 -19 -19 -19 -19 -19 -19 -19 -18 -18 -18 -19 -19 -19 -19 -19 -19 -20 -20 -20 -20 -21 -21 -21 -22 -22 -23 -23 -23 -24 -23 -24 -24 -25
-18 -18 -18 -18 -18 -18 -18 -19 -19 -19 -19 -19 -19 -19 -19 -19 -19 -19 -19 -19 -19 -19 -19 -19 -19 -20 -20 -20 -21 -21 -21 -21 -22 -22 -23 -23 -23 -23 -24 -24 -24 -24 -25
-19 -19 -19 -19 -18 -19 -19 -19 -19 -19 -19 -19 -19 -19 -19 -19 -19 -19 -19 -19 -19 -19 -19 -20 -20 -20 -20 -21 -21 -21 -21 -22 -22 -22 -23 -23 -23 -24 -24 -24 -24 -25 -25
-19 -19 -19 -19 -19 -19 -19 -19 -19 -19 -19 -19 -19 -19 -19 -19 -19 -19 -19 -19 -19 -19 -20 -20 -20 -20 -21 -21 -21 -22 -22 -22 -22 -23 -23 -23 -24 -24 -24 -24 -24 -25 -25
-19 -19 -19 -19 -19 -19 -19 -19 -19 -19 -19 -19 -19 -19 -19 -19 -19 -19 -19 -19 -19 -20 -20 -20 -21 -21 -21 -21 -22 -22 -22 -23 -23 -24 -24 -24 -24 -25 -25 -25 -25 -25 -25
-19 -19 -19 -19 -19 -19 -19 -19 -19 -19 -19 -19 -19 -19 -19 -19 -19 -19 -19 -20 -20 -20 -20 -21 -21 -21 -21 -22 -22 -22 -23 -23 -23 -24 -24 -24 -25 -25 -25 -25 -25 -25 -25
-19 -19 -19 -19 -19 -19 -19 -19 -19 -19 -19 -19 -19 -19 -19 -19 -20 -20 -20 -20 -20 -20 -21 -21 -21 -22 -22 -22 -22 -23 -23 -24 -24 -24 -24 -25 -25 -25 -25 -25 -25 -25 -25
-19 -19 -19 -19 -19 -19 -19 -19 -19 -19 -19 -19 -19 -19 -19 -19 -19 -19 -19 -20 -20 -21 -21 -21 -22 -22 -22 -22 -23 -23 -23 -24 -24 -24 -24 -25 -25 -26 -26 -26 -26 -26 -26
-19 -19 -19 -19 -19 -19 -19 -19 -19 -19 -19 -19 -20 -20 -19 -19 -19 -19 -20 -20 -21 -21 -21 -22 -22 -22 -23 -23 -23 -23 -24 -24 -24 -24 -24 -25 -25 -26 -26 -26 -26 -26 -26
Height
5729 5733 5736 5739 5741 5743 5744 5746 5747 5748 5748 5748 5748 5747 5746 5746 5745 5744 5743 5742 5740 5738 5736 5733 5730 5727 5723 5718 5713 5708 5702 5697 5692 5688 5682 5674 5665 5656 5649 5646 5645 5646 5646
5720 5723 5726 5730 5732 5733 5735 5736 5737 5738 5738 5738 5737 5737 5737 5736 5736 5735 5734 5733 5732 5730 5727 5724 5721 5718 5713 5708 5703 5698 5692 5687 5683 5678 5672 5666 5659 5652 5646 5641 5638 5638 5638
5712 5715 5717 5720 5722 5724 5725 5727 5728 5728 5728 5728 5727 5727 5727 5727 5727 5726 5726 5725 5723 5721 5718 5715 5712 5708 5704 5698 5694 5688 5683 5678 5674 5669 5663 5659 5653 5648 5643 5640 5637 5634 5631
5704 5707 5709 5711 5713 5714 5715 5716 5717 5718 5718 5718 5718 5718 5718 5718 5719 5718 5718 5716 5715 5712 5709 5706 5703 5699 5695 5690 5684 5679 5674 5670 5665 5661 5656 5652 5647 5642 5638 5634 5630 5627 5624
5696 5698 5700 5702 5703 5704 5705 5707 5707 5708 5709 5709 5709 5710 5710 5710 5710 5710 5709 5708 5706 5703 5701 5698 5694 5690 5686 5681 5676 5672 5667 5663 5659 5654 5650 5646 5641 5636 5632 5628 5623 5619 5616
5686 5689 5691 5692 5693 5695 5696 5697 5698 5699 5700 5701 5701 5701 5701 5702 5702 5702 5701 5699 5697 5695 5693 5690 5686 5681 5678 5674 5669 5665 5661 5657 5652 5648 5643 5638 5633 5629 5624 5619 5615 5611 5607
5677 5679 5681 5683 5684 5686 5687 5688 5690 5691 5691 5692 5693 5693 5694 5694 5694 5694 5693 5691 5689 5687 5685 5681 5677 5673 5669 5666 5662 5658 5654 5649 5645 5640 5636 5630 5625 5619 5614 5610 5605 5600 5596
5668 5671 5672 5674 5676 5678 5679 5681 5682 5683 5683 5684 5685 5685 5686 5687 5687 5686 5685 5683 5681 5679 5676 5672 5669 5666 5662 5658 5655 5651 5646 5642 5638 5633 5627 5621 5616 5610 5605 5600 5595 5589 5585
5660 5663 5664 5666 5668 5670 5672 5673 5674 5675 5675 5677 5677 5678 5679 5679 5679 5678 5677 5675 5674 5671 5667 5664 5662 5658 5654 5651 5647 5643 5639 5634 5629 5624 5618 5612 5607 5601 5595 5589 5584 5579 5573
5652 5654 5657 5659 5661 5663 5664 5665 5666 5668 5669 5670 5671 5671 5671 5672 5671 5671 5669 5668 5665 5663 5660 5657 5654 5651 5647 5644 5639 5635 5631 5626 5621 5615 5610 5604 5598 5591 5584 5578 5572 5568 5563
5645 5647 5649 5651 5653 5655 5657 5659 5660 5661 5662 5663 5664 5664 5665 5665 5664 5663 5662 5660 5658 5655 5653 5650 5647 5643 5640 5635 5631 5627 5622 5617 5612 5606 5600 5594 5588 5580 5573 5567 5562 5556 5551
5638 5640 5642 5644 5646 5648 5650 5652 5653 5655 5656 5656 5657 5658 5658 5658 5657 5655 5654 5653 5651 5648 5645 5642 5639 5635 5632 5628 5623 5619 5614 5609 5603 5597 5591 5585 5577 5570 5563 5556 5550 5544 5538
5631 5634 5636 5638 5640 5642 5644 5646 5647 5649 5649 5650 5651 5652 5651 5650 5649 5648 5647 5645 5643 5641 5638 5635 5631 5628 5624 5619 5615 5611 5606 5600 5594 5588 5581 5574 5567 5559 5552 5545 5538 5531 5524
5625 5627 5630 5632 5634 5636 5638 5640 5641 5642 5643 5644 5645 5645 5644 5643 5642 5641 5640 5638 5636 5633 5630 5627 5623 5619 5615 5611 5607 5602 5597 5591 5584 5578 5571 5564 5557 5548 5541 5534 5526 5518 5509
5620 5622 5624 5626 5628 5630 5632 5634 5634 5636 5637 5638 5638 5638 5637 5636 5635 5634 5633 5631 5628 5625 5622 5619 5615 5611 5606 5602 5598 5593 5587 5581 5574 5568 5561 5553 5545 5537 5529 5522 5514 5504 5493
5615 5617 5619 5621 5623 5625 5626 5627 5628 5630 5631 5631 5631 5630 5629 5628 5628 5627 5625 5623 5620 5617 5614 5610 5606 5602 5598 5593 5588 5583 5577 5571 5564 5558 5551 5543 5534 5526 5518 5510 5502 5491 5477
5610 5612 5613 5615 5616 5618 5619 5621 5622 5623 5624 5624 5623 5623 5622 5622 5621 5619 5617 5614 5611 5608 5605 5601 5598 5594 5589 5584 5579 5574 5568 5561 5554 5548 5541 5532 5523 5514 5507 5499 5489 5478 5465
5605 5606 5607 5608 5610 5611 5613 5614 5615 5616 5616 5616 5616 5615 5615 5614 5613 5612 5609 5606 5603 5600 5596 5592 5588 5584 5579 5574 5569 5563 5558 5551 5544 5537 5530 5522 5512 5503 5496 5488 5479 5468 5457
5598 5599 5601 5602 5603 5604 5606 5607 5608 5608 5608 5608 5608 5607 5607 5606 5605 5603 5600 5597 5594 5590 5587 5583 5578 5573 5569 5563 5558 5553 5547 5541 5534 5527 5519 5510 5501 5493 5485 5478 5470 5461 5453
5590 5592 5593 5595 5596 5597 5598 5599 5599 5599 5599 5599 5599 5599 5598 5597 5596 5593 5590 5587 5584 5581 5576 5572 5568 5562 5558 5553 5548 5542 5536 5529 5523 5516 5507 5498 5490 5483 5476 5469 5461 5453 5446
5583 5585 5586 5587 5588 5589 5590 5591 5591 5591 5591 5591 5590 5590 5589 5588 5586 5583 5580 5577 5574 5570 5566 5562 5557 5553 5548 5542 5537 5531 5525 5518 5512 5505 5496 5488 5480 5473 5466 5460 5452 5444 5438
5575 5576 5578 5578 5579 5580 5581 5582 5582 5582 5582 5582 5581 5580 5579 5577 5575 5573 5570 5567 5563 5559 5555 5550 5546 5541 5537 5532 5527 5521 5514 5508 5501 5494 5485 5477 5470 5463 5456 5449 5443 5436 5429
5565 5567 5568 5569 5570 5570 5571 5571 5572 5572 5572 5572 5571 5570 5568 5566 5564 5561 5558 5555 5551 5547 5543 5539 5534 5530 5526 5522 5516 5510 5503 5497 5489 5482 5474 5466 5459 5452 5445 5439 5431 5425 5418
5555 5557 5558 5559 5560 5560 5561 5560 5560 5560 5560 5560 5559 5558 5556 5555 5552 5549 5546 5543 5539 5535 5532 5529 5525 5520 5515 5510 5505 5499 5492 5485 5478 5470 5463 5455 5447 5439 5433 5426 5419 5412 5405
5544 5546 5547 5548 5549 5549 5550 5549 5549 5548 5548 5548 5547 5546 5544 5542 5540 5537 5534 5530 5527 5524 5521 5518 5514 5509 5504 5498 5493 5487 5481 5474 5466 5458 5450 5443 5434 5427 5419 5412 5404 5397 5390
5532 5533 5534 5535 5536 5537 5538 5537 5537 5537 5536 5536 5535 5534 5531 5529 5527 5524 5521 5518 5515 5512 5510 5506 5503 5498 5492 5487 5481 5475 5468 5461 5453 5446 5439 5430 5421 5413 5404 5397 5388 5380 5373
Wind_Speed
44 43 47 44 42 42 42 42 42 42 42 43 44 44 43 40 37 37 36 35 36 37 39 39 38 40 42 45 44 44 45 44 41 43 44 42 37 33 34 35 28 26 32
44 44 46 47 43 43 43 42 43 44 44 43 43 41 38 37 36 35 34 34 36 38 39 39 42 43 44 45 45 45 42 40 41 43 42 38 34 32 27 27 28 34 39
41 41 41 43 44 44 43 45 44 43 42 41 38 37 37 36 34 35 34 35 37 39 38 40 41 42 44 45 46 39 37 38 39 37 36 35 34 33 30 29 28 28 33
38 42 42 42 42 42 42 41 41 40 38 37 36 36 35 34 35 34 35 36 38 38 40 39 39 42 44 43 37 34 34 33 32 30 30 30 31 30 30 31 32 35 36
36 38 41 42 41 39 38 37 36 35 36 35 35 35 34 35 33 34 35 36 36 37 37 38 39 42 40 35 32 32 32 31 29 31 32 34 34 35 35 35 35 37 35
36 36 38 38 36 35 35 34 33 34 34 33 33 34 33 32 33 33 33 34 35 35 37 38 40 37 33 32 32 31 29 29 31 32 33 34 35 35 36 37 38 40 40
35 36 34 33 33 33 33 33 32 32 30 32 33 31 30 31 31 32 31 32 33 35 37 38 35 31 31 31 31 30 30 31 32 34 36 36 37 39 40 41 42 44 44
33 33 32 32 32 32 31 30 29 30 31 31 30 29 29 30 30 30 30 30 33 35 35 33 30 30 30 29 30 31 31 32 33 36 38 39 40 42 41 42 42 42 43
30 30 30 30 30 30 29 28 29 30 30 28 27 27 27 26 27 27 28 31 32 33 33 30 29 30 30 31 32 32 32 33 35 37 39 40 42 43 43 43 41 40 41
29 30 30 29 29 28 27 27 26 24 24 24 23 23 23 24 25 26 28 30 31 32 30 28 28 29 30 31 32 33 34 35 37 38 40 41 42 44 45 43 39 39 40
28 28 28 27 27 28 27 27 25 25 23 22 22 22 23 24 25 26 27 29 31 29 28 28 28 30 31 32 33 35 36 37 38 40 41 42 44 45 44 43 43 44 45
25 26 26 26 26 25 26 25 23 23 22 21 21 22 23 24 24 25 27 28 28 27 27 28 30 31 32 33 34 35 37 39 40 41 41 43 46 47 45 44 45 47 48
24 25 25 25 24 23 22 22 22 21 20 21 22 23 22 23 25 25 27 27 26 26 27 28 30 32 33 34 35 36 38 40 42 42 43 45 48 48 48 47 49 50 52
23 23 23 23 23 23 22 21 20 20 21 21 21 21 22 24 25 27 28 28 28 28 29 30 31 33 34 36 36 37 39 41 43 44 45 47 50 50 49 49 51 54 58
21 21 22 22 22 20 21 21 22 22 21 21 21 22 23 25 25 26 26 26 27 28 30 31 33 34 36 37 36 38 40 43 44 45 47 48 51 53 52 51 54 57 64
19 20 20 21 22 22 22 22 22 22 22 21 21 23 24 24 24 25 26 27 28 29 31 32 34 36 37 36 37 39 42 45 46 46 49 52 56 53 51 51 56 61 64
20 20 20 20 21 22 22 23 23 24 23 23 24 25 24 24 23 22 24 26 27 29 31 34 36 38 38 37 38 40 44 47 46 47 49 52 57 51 51 51 55 59 56
23 23 23 22 21 22 23 25 26 27 26 27 27 27 25 25 25 27 29 30 29 30 33 36 38 39 39 39 39 42 46 48 47 47 49 55 57 50 49 50 56 53 45
22 22 23 24 25 26 28 28 29 30 30 30 29 29 29 29 29 30 31 30 31 33 36 38 39 40 41 41 41 43 48 50 47 50 53 58 54 48 48 49 53 47 37
26 25 25 26 25 26 24 25 28 30 30 31 31 30 31 31 32 33 33 33 34 37 39 41 41 42 42 42 43 44 48 49 47 50 54 55 49 48 48 48 51 44 37
27 27 27 28 28 30 28 26 27 28 28 29 31 31 32 34 34 36 37 38 38 40 43 43 44 44 42 43 43 45 48 48 49 51 56 51 47 48 47 47 50 45 38
29 29 29 30 30 30 32 31 31 30 31 32 34 34 36 36 36 38 40 42 44 46 47 44 44 43 41 43 44 46 47 48 50 53 54 49 49 49 48 47 49 47 42
32 33 33 33 33 34 35 35 35 36 37 38 38 38 38 39 40 43 46 47 49 49 47 44 42 40 40 43 44 47 48 50 51 55 53 52 50 49 49 50 50 50 46
35 34 35 34 34 34 33 36 40 41 41 40 39 39 41 42 44 47 49 50 51 48 44 42 40 40 42 44 46 47 48 51 51 54 53 53 52 52 52 52 53 53 51
41 41 41 40 39 38 38 37 36 38 41 43 44 43 44 46 47 49 51 49 46 44 42 40 40 42 43 46 48 48 48 51 53 53 53 55 54 54 55 55 56 57 54
41 42 43 44 43 42 42 41 39 39 41 40 41 43 45 46 47 47 45 43 42 39 38 40 43 44 45 48 48 50 51 55 53 55 54 56 56 58 59 59 61 60 56
Wind_Direction
246 249 243 244 253 256 258 258 258 260 263 266 269 272 274 274 275 276 278 279 284 290 295 291 294 295 296 303 303 303 301 301 300 306 311 316 323 322 309 306 288 291 298
245 247 244 243 252 252 255 258 260 263 266 268 270 270 271 273 274 274 277 279 285 291 292 291 293 296 300 303 303 302 300 301 302 307 309 314 322 323 320 325 307 296 297
243 246 247 247 249 253 256 258 261 265 266 266 267 269 271 273 274 277 276 280 285 290 294 296 297 297 302 303 302 301 302 303 305 308 311 310 315 320 317 309 301 298 288
245 247 252 255 256 256 258 260 262 263 263 264 267 269 271 273 274 274 275 280 286 289 293 296 299 302 302 301 302 305 305 306 309 311 313 318 316 317 313 308 301 297 296
252 251 251 256 256 257 257 257 257 259 261 264 267 269 271 271 270 272 276 280 287 290 292 296 299 300 300 301 304 307 306 306 307 312 315 313 312 310 309 306 304 301 299
259 257 256 256 254 252 253 254 256 259 262 264 267 267 267 265 268 272 277 283 288 292 295 296 298 299 299 304 307 307 308 307 309 311 310 309 307 306 303 302 299 296 294
252 252 247 247 246 247 250 253 256 259 263 267 265 263 262 264 268 275 279 285 291 293 294 295 297 299 304 305 306 307 307 309 310 310 310 308 309 309 308 304 299 296 295
244 242 241 242 244 246 249 254 257 261 262 260 257 258 260 265 271 277 281 288 291 292 294 296 296 298 301 304 307 308 309 309 309 310 313 313 312 310 308 306 303 298 295
240 242 243 245 246 248 250 253 256 258 256 254 255 258 261 269 274 276 284 289 289 293 295 293 296 301 304 305 307 309 310 310 312 313 313 312 311 310 308 308 304 300 298
239 241 243 244 244 245 248 250 252 252 252 255 257 259 263 267 273 281 285 288 291 294 294 296 298 300 302 304 308 308 309 311 313 314 314 312 313 312 309 308 305 303 302
243 242 242 242 241 242 247 247 249 251 251 252 256 257 261 270 277 281 286 289 292 294 292 295 300 303 305 306 308 311 312 313 315 315 315 314 316 316 312 309 307 306 303
242 241 240 237 239 244 245 243 246 247 246 247 251 260 266 272 278 283 285 288 294 296 298 300 302 304 305 305 308 311 312 315 315 316 316 319 321 318 314 311 308 307 305
240 241 237 238 241 241 240 239 240 241 246 253 259 263 270 277 280 283 285 287 294 299 302 304 305 304 304 307 309 311 312 313 315 316 319 322 324 318 314 313 312 312 309
237 237 239 241 241 237 239 238 240 246 250 253 258 269 276 279 283 287 285 287 292 296 300 303 304 305 307 308 309 310 312 314 315 316 318 320 324 320 315 314 315 314 311
237 240 241 238 229 236 238 242 244 246 246 253 265 273 278 281 283 284 287 290 295 297 298 301 304 305 306 306 309 310 313 314 314 314 315 320 322 318 317 316 316 315 314
239 238 237 236 240 242 243 243 242 242 249 260 270 278 280 279 280 283 287 290 293 296 300 302 304 305 305 307 308 311 314 315 314 311 314 320 323 319 318 318 320 320 319
242 239 239 240 242 243 241 240 241 247 256 264 272 280 275 276 280 283 290 295 296 299 303 304 303 304 307 307 308 311 315 316 314 314 316 320 324 318 318 320 323 325 324
242 243 241 239 239 239 241 243 246 251 258 265 272 277 272 273 276 288 293 295 298 303 305 304 304 306 306 305 307 309 313 315 314 313 317 323 323 319 319 322 326 328 325
242 245 249 249 247 246 246 247 250 254 259 264 271 273 271 269 278 289 294 297 298 299 302 305 304 304 304 304 307 309 311 314 313 315 317 323 322 318 319 322 327 328 323
248 247 245 244 245 245 246 252 256 257 260 263 268 268 270 274 279 286 292 296 298 299 301 304 304 302 302 303 306 308 311 313 314 315 319 323 320 318 319 320 325 325 320
243 246 249 247 248 247 249 258 263 263 266 269 269 269 270 275 278 286 292 295 297 301 303 302 302 301 301 303 306 308 311 311 314 315 322 321 318 316 316 317 322 322 315
245 247 248 249 249 252 257 259 262 265 267 271 272 271 272 274 280 286 291 294 296 297 300 300 300 299 300 304 306 309 311 312 314 316 322 319 318 316 316 316 318 320 313
249 251 252 254 255 255 255 256 260 265 269 273 274 276 278 279 285 287 290 292 294 297 297 297 297 298 302 305 307 309 311 313 313 318 319 319 316 315 315 315 314 316 313
250 251 254 257 261 264 267 266 261 261 264 268 272 273 276 279 280 283 289 292 293 293 293 295 295 299 302 305 308 310 310 314 312 317 317 317 314 313 313 313 313 313 312
253 255 257 259 262 265 267 270 270 265 264 265 269 273 276 279 282 285 288 289 289 289 291 293 296 301 303 305 308 311 313 315 313 314 314 316 313 311 312 312 312 312 309
254 256 258 260 262 262 264 265 267 268 270 269 272 277 279 281 284 287 286 284 286 289 293 296 300 303 303 306 307 310 312 313 312 314 313 314 312 311 311 312 311 309 306